Location: Unspecified
(51.5147°N, 7.4673°E)
Time: 03:07:26
(UTC+01:00)

Vanguard 1 Rocket - Pass Details

Date: 18 February 2026
Orbit: 653 x 4214 km, 34.3° (Epoch: 5 March)

Event Time Altitude Azimuth Distance (km) Brightness Sun altitude
Rises 15:17:54 0° 241° (WSW) 4,770 12.4 18.8°
Reaches altitude 10° 15:20:43 10° 233° (SW) 4,149 12.7 18.5°
Maximum altitude 15:31:35 40° 169° (S) 3,549 11.1 17.3°
Drops below altitude 10° 15:50:16 10° 110° (ESE) 6,974 11.7 15.3°
Sets 15:56:55 0° 105° (ESE) 8,296 12.0 14.5°
